Location: Newark
(44.5425°N, 10.7801°E)
Time: 20:55:17
(UTC+00:00)

N. Korean satellite - Pass Details

Date: 24 January 2020
Orbit: 456 x 505 km, 97.2° (Epoch: 19 February)

Event Time Altitude Azimuth Distance (km) Brightness Sun altitude
Rises 04:34:39 0° 21° (NNE) 2,533 10.4 -22.9°
Reaches altitude 10° 04:36:52 10° 32° (NNE) 1,658 9.6 -22.5°
Maximum altitude 04:40:05 31° 97° (E) 864 8.5 -22.0°
Drops below altitude 10° 04:43:19 10° 161° (SSE) 1,671 9.6 -21.4°
Sets 04:45:33 0° 172° (S) 2,555 10.4 -21.0°
